Location: Newark
(40.9833°N, 0.0333°W)
Time: 13:54:43
(UTC+00:00)

S-56A Canister/Altair - Visible Passes

Search period start: 30 October 2020 00:00
Search period end: 09 November 2020 00:00
Orbit: 633 x 2499 km, 38.9° (Epoch: 29 October)

Date Brightness Start Highest point End Pass type
(mag) Time Alt. Az. Time Alt. Az. Time Alt. Az.
30 Oct 9.2 04:03:17 21° S 04:05:00 25° SE 04:10:08 10° E visible
31 Oct 9.5 03:32:41 20° SE 03:32:41 20° SE 03:36:43 10° E visible
31 Oct 8.4 05:30:11 10° WSW 05:35:27 62° SSE 05:43:11 10° E visible
01 Nov 10.1 03:02:01 13° ESE 03:02:01 13° ESE 03:03:15 10° ESE visible
01 Nov 8.3 04:59:27 21° SW 05:02:50 56° SSE 05:09:49 10° E visible
02 Nov 8.2 04:28:45 38° SSW 04:30:16 49° SSE 04:36:34 10° E visible
03 Nov 8.3 03:58:01 42° SSE 03:58:01 42° SSE 04:03:24 10° E visible
03 Nov 8.2 05:55:56 10° W 06:01:17 75° S 06:09:13 10° E visible
04 Nov 9.3 03:27:15 26° ESE 03:27:15 26° ESE 03:30:19 10° E visible
04 Nov 7.9 05:24:41 18° WSW 05:28:37 73° S 05:35:53 10° E visible
05 Nov 10.2 02:56:28 14° E 02:56:28 14° E 02:57:18 10° E visible
05 Nov 7.7 04:53:54 36° WSW 04:56:00 71° S 05:02:37 10° E visible
06 Nov 7.5 04:23:05 65° SSW 04:23:26 67° S 04:29:29 10° E visible
07 Nov 8.4 03:52:16 44° ESE 03:52:16 44° ESE 03:56:26 10° E visible
07 Nov 8.1 05:49:42 11° W 05:54:32 67° S 06:01:48 10° ESE visible
08 Nov 9.6 03:21:26 22° E 03:21:26 22° E 03:23:30 10° E visible
08 Nov 7.8 05:18:52 24° W 05:21:55 68° S 05:28:35 10° ESE visible
